Weather History for KUIL - January, 2012

Change the Weather History Date:

Wednesday, January 4, 2012

  Actual Average Record
Temperature  
Mean Temperature 50 °F 41 °F  
Max Temperature 54 °F 46 °F 56 °F (2006)
Min Temperature 45 °F 36 °F 19 °F (1982)
Degree Days  
Heating Degree Days 15 24  
Month to date heating degree days 96  
Since 1 July heating degree days 2574  
Cooling Degree Days 0 0  
Month to date cooling degree days 0  
Year to date cooling degree days 0  
Moisture  
Dew Point 48 °F    
Average Humidity 97    
Maximum Humidity 100    
Minimum Humidity 66    
Precipitation  
Precipitation 2.38 in 0.47 in 4.99 in (2015)
Month to date precipitation 1.86  
Year to date precipitation 1.86  
Sea Level Pressure  
Sea Level Pressure 29.99 in    
Wind  
Wind Speed 13 mph (South)    
Max Wind Speed 24 mph    
Max Gust Speed 43 mph    
Visibility 4 miles    
Events Fog , Rain , Thunderstorm    
T = Trace of Precipitation, MM = Missing Value Source: NWS Daily Summary

Daily Weather History Graph

Daily Weather History Graph

Search for Another Location

Airport or City:

Trip Planner

Search our weather history database for the weather conditions in past years. The results will help you decide how hot, cold, wet, or windy it might be!

Date:

Astronomy

Jan. 04, 2012 Rise Set
Actual Time 8:07 AM PST 4:38 PM PST
Civil Twilight 7:31 AM PST 5:14 PM PST
Nautical Twilight 6:52 AM PST 5:54 PM PST
Astronomical Twilight 6:14 AM PST 6:31 PM PST
Moon 1:07 PM PST (1/4) 3:58 AM PST (1/4)
Length of Visible Light 9h 43m
Length of Day
8h 31m
Waxing Gibbous, 81% of the Moon is Illuminated
Jan 4
Waxing Gibbous
Jan 8
Full
Jan 16
Last Quarter
Jan 22
New
Jan 30
First Quarter

Hourly Weather History & Observations

Time (PST) Temp. Windchill Dew Point Humidity Pressure Visibility Wind Dir Wind Speed Gust Speed Precip Events Conditions
12:53 AM 53.1 °F - - N/A% 30.04 in 10.0 mi SSE 12.7 mph 32.2 mph N/A   Overcast
1:53 AM 53.1 °F - 52.0 °F 96% 30.01 in 10.0 mi SSE 13.8 mph 34.5 mph N/A   Overcast
2:53 AM 54.0 °F - 43.0 °F 66% 29.98 in 10.0 mi SSE 16.1 mph 31.1 mph N/A   Scattered Clouds
3:53 AM 51.1 °F - 45.0 °F 80% 29.99 in 3.0 mi South 20.7 mph 41.4 mph 0.00 in Rain Light Rain
4:03 AM 50.0 °F - 46.4 °F 87% 29.99 in 2.0 mi South 12.7 mph 35.7 mph 0.03 in Rain Rain
4:10 AM 50.0 °F - 46.4 °F 87% 29.99 in 2.0 mi South 16.1 mph 31.1 mph 0.04 in Rain Light Rain
4:30 AM 48.2 °F - 48.2 °F 100% 30.00 in 1.8 mi South 15.0 mph 35.7 mph 0.11 in Rain Rain
4:53 AM 48.0 °F - 48.0 °F 100% 29.99 in 1.8 mi South 15.0 mph 34.5 mph 0.20 in Rain Rain
5:14 AM 48.2 °F - 48.2 °F 100% 29.98 in 1.0 mi SSE 16.1 mph 28.8 mph 0.09 in Rain Rain
5:28 AM 48.2 °F - 48.2 °F 100% 30.00 in 1.5 mi South 12.7 mph 39.1 mph 0.22 in Rain Rain
5:48 AM 48.2 °F - - N/A% 29.98 in 2.0 mi South 16.1 mph 29.9 mph 0.32 in Rain Rain
5:53 AM 48.0 °F - - N/A% 29.98 in 1.8 mi SSE 9.2 mph 29.9 mph 0.35 in Rain Rain
6:08 AM 48.2 °F - - N/A% 29.99 in 2.0 mi SSE 12.7 mph 28.8 mph 0.06 in Rain Light Rain
6:14 AM 48.2 °F - - N/A% 29.98 in 1.5 mi SSE 16.1 mph 31.1 mph 0.09 in Rain Rain
6:40 AM 48.2 °F - - N/A% 29.98 in 3.0 mi South 12.7 mph 31.1 mph 0.19 in Rain Light Rain
6:53 AM 48.9 °F - - N/A% 29.98 in 8.0 mi South 13.8 mph 29.9 mph 0.19 in Rain Light Rain
7:12 AM 48.2 °F - - N/A% 29.99 in 1.8 mi South 16.1 mph 33.4 mph 0.06 in Rain Rain
7:36 AM 48.2 °F - 48.2 °F 100% 29.99 in 2.5 mi South 16.1 mph 29.9 mph 0.14 in Rain Rain
7:43 AM 48.2 °F - 48.2 °F 100% 29.99 in 3.0 mi South 10.4 mph 29.9 mph 0.17 in Rain Rain
7:53 AM 48.9 °F - 48.0 °F 97% 29.98 in 2.0 mi South 13.8 mph 32.2 mph 0.23 in Rain Rain
8:31 AM 48.2 °F - 48.2 °F 100% 30.00 in 1.2 mi South 16.1 mph 31.1 mph 0.16 in Rain Rain
8:50 AM 48.2 °F - 48.2 °F 100% 30.00 in 1.8 mi South 13.8 mph 31.1 mph 0.27 in Rain Rain
8:53 AM 48.9 °F - 48.0 °F 97% 30.01 in 1.8 mi South 17.3 mph 26.5 mph 0.27 in Rain Light Rain
9:07 AM 48.2 °F - 48.2 °F 100% 30.01 in 0.8 mi South 11.5 mph 28.8 mph 0.05 in Rain Rain
9:18 AM 48.2 °F - 48.2 °F 100% 30.01 in 1.0 mi South 16.1 mph 33.4 mph 0.08 in Rain Light Rain
9:29 AM 48.2 °F - 48.2 °F 100% 30.00 in 0.8 mi South 12.7 mph 26.5 mph 0.14 in Rain Rain
9:46 AM 48.2 °F - 48.2 °F 100% 30.01 in 1.0 mi South 15.0 mph 27.6 mph 0.17 in Rain Light Rain
9:53 AM 48.9 °F - 48.0 °F 97% 30.01 in 0.8 mi South 12.7 mph 26.5 mph 0.22 in Rain Rain
10:07 AM 48.2 °F - 48.2 °F 100% 30.01 in 1.0 mi South 15.0 mph 28.8 mph 0.04 in Rain Rain
10:17 AM 48.2 °F - 48.2 °F 100% 30.02 in 0.8 mi South 15.0 mph 27.6 mph 0.08 in Rain Rain
10:40 AM 48.2 °F - 48.2 °F 100% 30.01 in 1.2 mi South 15.0 mph 27.6 mph 0.18 in Rain Light Rain
10:53 AM 48.9 °F - 48.0 °F 97% 30.01 in 0.8 mi South 13.8 mph 26.5 mph 0.21 in Rain Light Rain
11:53 AM 48.9 °F - 48.9 °F 100% 29.99 in 0.8 mi South 15.0 mph 27.6 mph 0.12 in Rain Light Rain
12:53 PM 48.9 °F - 48.9 °F 100% 29.97 in 0.8 mi South 13.8 mph 25.3 mph 0.12 in Rain Light Rain
1:08 PM 48.2 °F - 48.2 °F 100% 29.96 in 1.2 mi South 9.2 mph 21.9 mph 0.02 in Rain Light Rain
1:40 PM 48.2 °F - 48.2 °F 100% 29.95 in 0.5 mi SSE 10.4 mph 26.5 mph 0.07 in Fog , Rain Rain
1:53 PM 48.9 °F - 48.9 °F 100% 29.94 in 1.2 mi South 13.8 mph 25.3 mph 0.09 in Rain Light Rain
2:34 PM 50.0 °F - 48.2 °F 94% 29.95 in 2.0 mi South 15.0 mph 28.8 mph 0.04 in Rain Light Rain
2:53 PM 50.0 °F - 50.0 °F 100% 29.94 in 1.8 mi South 17.3 mph 26.5 mph 0.06 in Rain Light Rain
3:04 PM 50.0 °F - 48.2 °F 94% 29.94 in 1.0 mi SSW 18.4 mph 29.9 mph 0.02 in Rain Light Rain
3:37 PM 50.0 °F - 50.0 °F 100% 29.94 in 2.0 mi South 18.4 mph 35.7 mph 0.08 in Rain Light Rain
3:45 PM 50.0 °F - 50.0 °F 100% 29.94 in 5.0 mi South 13.8 mph 35.7 mph 0.08 in   Overcast
3:53 PM 50.0 °F - 50.0 °F 100% 29.94 in 5.0 mi South 16.1 mph 33.4 mph 0.08 in   Overcast
4:00 PM 50.0 °F - 50.0 °F 100% 29.93 in 1.8 mi South 15.0 mph 26.5 mph 0.00 in Rain Light Rain
4:08 PM 50.0 °F - 50.0 °F 100% 29.93 in 1.0 mi South 17.3 mph 31.1 mph 0.02 in Rain Light Rain
4:38 PM 50.0 °F - 50.0 °F 100% 29.93 in 0.8 mi SSW 12.7 mph 32.2 mph 0.13 in Rain Light Rain
4:42 PM 50.0 °F - 50.0 °F 100% 29.93 in 1.8 mi SSW 12.7 mph 32.2 mph 0.13 in Rain Light Rain
4:44 PM 50.0 °F - 50.0 °F 100% 29.93 in 4.0 mi SSW 16.1 mph 31.1 mph 0.13 in Rain Light Rain
4:53 PM 50.0 °F - 50.0 °F 100% 29.94 in 4.0 mi SSW 16.1 mph 29.9 mph 0.13 in Rain Light Rain
5:19 PM 50.0 °F - 50.0 °F 100% 29.95 in 5.0 mi SSW 17.3 mph 39.1 mph 0.04 in Rain Light Rain
5:36 PM 48.2 °F - 48.2 °F 100% 29.96 in 5.0 mi SW 18.4 mph 31.1 mph 0.06 in Rain Light Rain
5:53 PM 48.0 °F - 46.9 °F 96% 29.97 in 10.0 mi SSW 16.1 mph 21.9 mph 0.08 in Rain Light Rain
6:38 PM 48.2 °F - 46.4 °F 93% 29.99 in 9.0 mi SW 11.5 mph 18.4 mph 0.00 in   Overcast
6:53 PM 48.0 °F - 46.9 °F 96% 30.01 in 9.0 mi SW 11.5 mph - 0.00 in   Overcast
7:53 PM 48.0 °F - 46.0 °F 93% 30.04 in 8.0 mi SW 8.1 mph - N/A   Overcast
8:21 PM 46.4 °F 41.5 °F 46.4 °F 100% 30.04 in 8.0 mi SSW 10.4 mph 19.6 mph 0.02 in Thunderstorm Overcast
8:36 PM 46.4 °F 41.9 °F 44.6 °F 93% 30.05 in 10.0 mi SW 9.2 mph - 0.02 in   Overcast
8:53 PM 46.0 °F 42.5 °F 44.1 °F 93% 30.07 in 10.0 mi SSW 6.9 mph - 0.02 in   Overcast
9:53 PM 46.9 °F - 45.0 °F 93% 30.09 in 8.0 mi SSW 10.4 mph 17.3 mph 0.00 in Rain Light Rain
10:53 PM 46.9 °F - 45.0 °F 93% 30.11 in 8.0 mi SSW 9.2 mph - N/A   Overcast
11:53 PM 46.0 °F 41.0 °F 43.0 °F 89% 30.12 in 10.0 mi SSW 10.4 mph 17.3 mph 0.01 in Rain Light Rain